Weather in Byas'-Kyuel'

Russia / Sakha (Yakutia) Republic     59°28′24″N   119°18′08″E
temp.,
°C
wind,
m/s
gust,
m/s
humid.,
%
clouds,
%
prec.,
mm/h
press.,
hPa
HPBL,
m
9 march, tue
tue900:00−10wnw4138899 0.1 1013956
03:00−11wnw3128894 0.1 1016549
06:00−14w310870 0.0 1018274
09:00−14wsw2118620 0.0 1019377
12:00−8wsw357415 0.0 1018821
15:00−6ssw467342 0.0 1013995
18:00−7s31082100 0.0 1008658
21:00−8sse21094100 0.4 1006437
10 march, wed
wed1000:00−9ssw31084100 0.0 1004298
03:00−6wsw41378100 0.0 1005820
06:00−11wnw31186100 0.2 1010866
09:00−12w5147681 0.2 10151307
12:00−10w7137090 0.0 10151749
15:00−9w6137595 0.1 10151939
18:00−10w31276100 0.1 10171678
21:00−14sw238494 0.1 101933
11 march, thu
thu1100:00−15ssw258771 0.0 1018115
03:00−13ssw229086 0.0 101749
06:00−14sw129096 0.0 101820
09:00−13ssw119461 0.0 101852
12:00−7w267980 0.0 1018980
15:00−5w367190 0.2 10171273
18:00−6ssw1284100 0.1 101629
21:00−9ssw1289100 0.1 101522
12 march, fri
fri1200:00−9sse1291100 0.0 101223
03:00−8se1297100 0.9 100783
06:00−6s21195100 1.9 1005545
09:00−3wsw51478100 1.9 1005852
12:00+1wsw4984100 0.0 10051137
15:00+2w5127998 0.3 10041590
18:00−1w4117760 0.1 1005865
21:00−5w3128466 0.1 1008438
13 march, sat
sat1300:00−8w31286100 0.0 1010446
03:00−12sw229050 0.0 101021
06:00−13sse128887 0.0 100821
09:00−10sse249090 0.0 1002156
12:00−5sw31180100 0.1 998668
15:00−3w8145987 0.3 9992119
18:00−7w4147144 0.0 10011720
21:00−10w4157952 0.0 1004858